Find Starlink 34809

NORAD ID: 65069 Int'l Des: 2025-165 Owner: SPXS Country: US Constellation: starlink operational
LEOCIRCULARRETROGRADESSO

当前视图

正在加载3D地球...

About Starlink 34809

Starlink 34809 (NORAD 65069) is a starlink constellation satellite (v2 mini) launched Jul 31, 2025 by SPXS of US. It operates in LEO, CIRCULAR, RETROGRADE, SSO orbit with a mass of 575.00 kg.

即将过境

Passes for default location (London). Set your location on the main map for personalized predictions.

高度历史

Loading altitude history...

两行轨道根数

1 65069U 25165P 26263.91670139 -.00029111 00000-0 -90279-3 0 9996
2 65069 97.2855 335.0695 0001599 91.8375 318.9328 15.33445990 5790
Epoch: Sep 20, 2026 • Age: 9 hours

当前状态

高度 471.2 km
远地点 / 近地点 N/A
速度 7.64 km/s
星下点 42.47°N, 141.86°W
发射日期 Jul 31, 2025
运行时间 1.1 years
类型 internet

技术详情

分类 Payload
质量 575.00 kg
干质量 530.00 kg
长度 0.30 m
跨度 29.00 m
形状 ? Box + pan
制造商 SPXS
平台类型 Starlink V2MO
阶段状态 In Orbit
所有者/国家 SPXS/US

Most Searched